SL-12 DEB, 28584

Orbit data source: Space-Track

SL-12 DEB, 28584 is space debris originally from a launch on Thu, 30 Jul 1992 UTC launched from the Tyuratam Missile And Space Complex (TTMTR). Debris objects in space refer to the collection of defunct objects orbiting the Earth. Examples of debris include non-operational satellites, rocket bodies, and fragments generated from explosions, collisions, or faulty payload assembly.

Loading next visibility...
Identifier
28584, 1992-047T
Orbit
Active
Country
Flag of CISCIS
Related business
Manufacturer
Unknown
Mission
Spacecraft
Bus & Motor
Unknown
Mass
Unknown
Launch date (UTC)
1992-07-30 (33 years ago)
Launch vehicle
Unknown
Launch site
Tyuratam Missile And Space Complex (TTMTR)
Object type
Payload
Rocket body
Debris
Shape & HBR
Unknown shape, 0.2 m
Radar Cross Section
Small (<0.1 m²)

Expand to show TLE details & history
Last TLE update: 2 days ago

TLE from 2 days ago
0 SL-12 DEB
1 28584U 92047T   25347.94799638  .00220531  00000-0  11745+0 0  9995
2 28584  64.9229 301.0889 3376251   1.8461 359.1808  8.27595822 39416
Epoch: 2025-12-13T22:45Z
TLE epoch observation values (Epoch: 2025-12-13T22:45:06.887Z)
Latitude
-0.00002°
Longitude
-123.05775°
Altitude
462.5 km
Speed
8.83 km/s
True Right ascension
20h 04m 21s
True Declination
0° 00' 00"
Sunlit
Object was in daylight at epoch
Visualization orbit readout
Latitude
Unknown
Longitude
Unknown
Altitude
Unknown
Speed
Unknown
Apparent Right ascension
Unknown
Apparent Declination
Unknown
Sunlit
N/A
Visualization observer readout
Local Sidereal Time
13:19:55
Azimuth
Unknown
Elevation
Unknown
Doppler factor
Unknown
Orbital elements
Apogee altitude
7,430.2 km
Perigee altitude
459.576 km
Semi-major axis
10,323.025 km
Eccentricity
0.33763
Inclination
64.9229°
RAAN
301.0889°
Arg. of periapsis
1.8461°
True anomaly
358.24261°
Mean anomaly
359.1808°
Eccentric anomaly
358.76329°
Mean motion
2.06934 °/min
Orbital period
173.97 mins
BSTAR
0.11745
Loading maneuver chart data...
Computing Atmospheric mass density...
Loading historical data...
Loading historical data...
Loading historical data...
Loading historical data...
Loading historical data...
Loading historical data...
Loading historical data...

Documentation

Showing up to 5 results
|